TimeCST,TemperatureF,Dew PointF,Humidity,Sea Level PressureIn,VisibilityMPH,Wind Direction,Wind SpeedMPH,Gust SpeedMPH,PrecipitationIn,Events,Conditions,WindDirDegrees,DateUTC
12:57 AM,23.0,19.9,88,30.40,10.0,SW,6.9,-,N/A,,Clear,230,2013-12-31 06:57:00
1:57 AM,23.0,19.9,88,30.39,10.0,SW,4.6,-,N/A,,Clear,220,2013-12-31 07:57:00
2:57 AM,23.0,19.9,88,30.40,10.0,South,4.6,-,N/A,,Clear,170,2013-12-31 08:57:00
3:57 AM,23.0,19.0,85,30.39,10.0,Calm,Calm,-,N/A,,Clear,0,2013-12-31 09:57:00
4:57 AM,21.9,19.0,89,30.39,10.0,SSE,5.8,-,N/A,,Clear,150,2013-12-31 10:57:00
5:57 AM,21.0,19.0,92,30.40,10.0,SE,4.6,-,N/A,,Clear,130,2013-12-31 11:57:00
6:57 AM,23.0,19.0,85,30.41,10.0,ESE,5.8,-,N/A,,Clear,120,2013-12-31 12:57:00
7:57 AM,23.0,19.9,88,30.41,10.0,SE,4.6,-,N/A,,Clear,130,2013-12-31 13:57:00
8:57 AM,30.0,23.0,75,30.41,10.0,SE,5.8,-,N/A,,Clear,130,2013-12-31 14:57:00
9:57 AM,36.0,23.0,59,30.41,10.0,SE,6.9,-,N/A,,Clear,130,2013-12-31 15:57:00
10:57 AM,43.0,24.1,47,30.38,10.0,SSE,5.8,-,N/A,,Clear,150,2013-12-31 16:57:00
11:57 AM,48.9,25.0,39,30.34,10.0,SSE,6.9,-,N/A,,Clear,160,2013-12-31 17:57:00
12:57 PM,53.1,24.1,32,30.29,10.0,SSW,13.8,-,N/A,,Clear,200,2013-12-31 18:57:00
1:57 PM,54.0,21.0,28,30.26,10.0,SSW,18.4,25.3,N/A,,Clear,200,2013-12-31 19:57:00
2:57 PM,53.1,21.9,30,30.25,10.0,South,19.6,-,N/A,,Clear,180,2013-12-31 20:57:00
3:57 PM,51.1,19.9,29,30.25,10.0,South,17.3,-,N/A,,Clear,190,2013-12-31 21:57:00
4:57 PM,46.0,19.9,35,30.25,10.0,South,9.2,-,N/A,,Clear,170,2013-12-31 22:57:00
5:57 PM,39.9,19.9,45,30.25,10.0,South,8.1,-,N/A,,Clear,180,2013-12-31 23:57:00
6:57 PM,41.0,21.9,47,30.25,10.0,SSE,6.9,-,N/A,,Clear,160,2014-01-01 00:57:00
7:57 PM,41.0,23.0,49,30.24,10.0,SSE,8.1,-,N/A,,Clear,150,2014-01-01 01:57:00
8:57 PM,39.0,23.0,53,30.22,10.0,SE,8.1,-,N/A,,Clear,140,2014-01-01 02:57:00
9:57 PM,37.9,21.9,53,30.20,10.0,SSE,8.1,-,N/A,,Clear,160,2014-01-01 03:57:00
10:57 PM,36.0,21.0,55,30.19,10.0,South,6.9,-,N/A,,Clear,190,2014-01-01 04:57:00
11:57 PM,37.0,21.0,52,30.17,10.0,SSE,8.1,-,N/A,,Clear,150,2014-01-01 05:57:00